CAPE
150 507 319 328 272 232 329 564 828 945 936 855 778 911 725 661 756 868 918 1228 1274 1184 1164 1153 1331 1265 809 699 1044 1127 1174 1155 1228 1131 1183 1247 1014 882 979 1312 956 1182 1442
214 457 598 468 467 303 291 389 910 890 1060 830 1005 1092 932 959 1139 1221 1382 1303 1242 1335 1317 1342 1274 1021 795 515 451 473 581 920 938 931 779 579 886 1390 1187 1364 809 1079 1202
316 434 650 643 456 508 236 620 861 966 1104 1117 846 701 960 1189 1150 1398 1411 1368 1279 1161 1310 1421 1054 685 424 553 888 842 899 1119 1343 1421 321 1 159 805 978 906 1408 1250 1224
327 310 441 676 598 332 266 835 1174 1038 1282 1297 600 619 1199 1275 1201 1212 1367 1336 1186 1300 1209 795 533 422 541 881 1099 1042 1158 935 1235 620 4 532 528 1316 1390 1306 841 810 1157
405 286 337 687 880 639 915 1011 1238 1166 1298 1053 501 733 1412 1286 1069 958 957 1090 1307 1168 780 469 466 725 691 736 988 895 974 1147 924 344 223 908 601 1153 1429 1034 572 1240 1124
402 280 308 410 979 819 699 1114 1376 1235 893 1081 896 929 1554 1420 1270 1183 940 849 795 1152 1094 707 300 750 1122 1044 1193 1045 833 778 366 324 89 536 535 1096 1356 924 491 1293 819
247 516 454 721 448 428 518 934 1264 1256 927 1186 1024 1171 1532 1320 1559 1737 1581 1073 733 598 1045 1046 900 770 688 656 571 577 637 979 570 52 163 312 318 511 597 1041 525 608 974
280 397 538 412 351 598 918 1070 1280 1405 1258 1025 1333 1264 1536 1736 1671 1570 1509 1598 1414 672 754 973 993 886 762 637 515 507 1110 1030 1041 8 68 493 712 931 815 372 244 236 267
615 230 548 769 903 933 1334 1261 1651 1440 1210 1017 1142 1280 1305 1238 1467 1412 1459 1535 1380 1383 688 929 1023 946 665 487 311 508 1100 788 406 127 87 330 827 777 1075 983 797 1056 1010
546 419 174 526 578 428 910 737 763 981 1655 1159 1148 1299 1175 1475 1757 1450 964 1049 1498 1459 1187 967 732 873 619 280 216 421 800 1004 371 473 465 389 555 703 637 218 204 281 839
584 514 443 332 278 455 741 677 1082 413 675 1234 1170 1112 995 834 1056 1218 876 909 1376 1336 1281 1211 906 534 430 284 233 456 508 689 876 749 757 462 351 990 1040 537 209 35 11
437 655 304 644 586 684 1037 1072 1063 1826 1553 1497 1181 1147 1256 1467 1628 1378 985 1243 1369 1388 1411 1443 1259 654 269 297 164 206 388 537 649 718 904 384 462 482 1102 1112 462 481 585
743 650 1130 1068 1169 1336 1334 1417 1978 1915 1553 1636 1390 1453 1773 1552 1738 1532 1461 958 1253 1388 1008 959 967 558 263 179 140 223 278 312 219 523 517 276 421 546 781 1191 629 295 354
778 1069 1300 1347 1511 1552 1340 1547 1537 1647 1638 1401 1354 1362 1425 1324 1240 1398 1426 1365 1449 1234 1450 1282 844 872 593 189 117 184 212 290 640 462 507 265 381 592 556 1077 846 489 379
739 1088 1429 1829 1758 1761 1740 1623 1753 1718 1798 1680 1732 1403 1492 1412 1214 1381 1120 929 1016 1359 1442 1497 1321 1038 760 440 207 134 129 495 434 482 542 377 392 539 435 620 1107 945 825
467 958 1221 1511 1773 1729 1568 1702 1623 1569 1592 1870 1797 1611 1663 1565 1470 1356 1055 709 1526 1410 1422 1524 1223 962 925 803 575 352 444 451 435 556 434 608 400 580 503 367 381 676 1208
410 677 1197 1250 1606 1534 1500 1609 1646 1617 1548 1642 1588 1804 1645 1340 1358 1192 1031 862 1307 1511 1168 1503 1011 837 991 1131 1008 728 817 778 615 601 559 510 425 398 664 530 94 89 408
571 539 956 1152 1383 1566 1643 1723 1438 1455 1443 1356 1363 1450 1536 1412 1220 1060 923 883 1267 1415 1260 1176 959 1089 977 1165 1190 952 752 849 722 570 416 346 321 397 454 714 687 197 141
573 600 648 971 1152 1348 1503 1545 1561 1453 1325 1074 1075 1117 1319 1509 1473 1581 1589 1337 1290 1311 1205 1212 1368 1128 886 931 951 843 724 822 824 536 423 378 362 337 374 436 568 799 568
688 519 641 818 1018 1131 1239 1276 1218 1234 1346 1296 1087 1032 1208 1224 1283 1485 1597 1787 1874 1553 1484 1298 1060 1107 882 899 643 578 781 611 910 855 693 550 336 279 296 500 560 549 596
620 477 421 506 805 944 838 733 875 893 1302 1487 1578 1499 1388 1305 1310 1593 1715 1731 1931 1671 1658 1607 1409 1095 1065 941 556 418 577 644 521 438 536 468 334 378 386 508 794 524 449
874 731 664 425 547 542 711 793 922 1234 1369 1444 1616 1710 1750 1789 1837 1924 1868 1799 1878 1776 1797 1713 1444 1123 1154 1113 508 907 360 382 445 526 511 546 480 419 347 425 466 662 784
1052 1053 1015 911 853 947 936 1101 1153 1256 1446 1451 1603 1687 1954 1997 2062 2090 1947 1620 1557 1832 1706 1750 1682 1416 1192 1290 1040 611 685 381 684 515 521 541 613 700 653 610 631 697 872
847 1126 1205 1327 1319 1451 1578 1371 1413 1419 1469 1421 1301 1594 1794 1559 1566 1774 1934 1643 1317 1601 1788 1800 1792 1621 1307 1324 1404 1143 775 678 618 346 467 655 1001 950 1043 1023 833 868 915
569 737 935 1279 1440 1647 1775 1737 1807 1751 1718 1785 1929 1615 1572 1876 1355 1394 1684 1530 1437 1605 1434 1472 1452 1336 1316 1176 1079 1258 1295 1001 850 874 344 293 635 809 743 756 764 787 752
716 803 1116 1299 1332 1582 1693 1881 1822 1874 2065 2193 2180 2158 2227 2172 2231 2202 2043 2103 1938 1894 2004 1999 2049 1751 1659 1515 1440 1050 944 885 889 900 848 637 481 535 658 647 571 771 1041
CIN
-3 0 -8 -6 -6 -1 -20 0 0 0 0 0 0 0 0 -2 -9 -6 -7 0 0 0 0 0 0 0 -2 -6 -3 -3 0 0 0 0 0 0 -1 -7 -1 0 -1 0 0
0 -1 -2 -2 0 -1 0 -1 0 -3 0 -1 0 0 -1 0 0 0 0 0 0 0 0 0 0 0 -3 -16 -37 -54 -36 -4 0 -2 -9 -23 -2 0 0 0 -1 -1 0
-9 -2 -2 0 0 0 -10 -1 -1 0 0 -1 -10 -19 -9 -1 0 0 0 0 0 0 0 0 0 -3 -10 -5 -3 -1 0 0 0 0 -60 -14 -41 -6 -1 0 0 -1 0
-2 -4 -11 -1 0 -4 -5 -1 0 0 0 0 -16 -23 -7 -1 -1 0 0 0 -1 0 0 -2 -11 -11 0 0 0 0 0 -3 0 -29 -33 -5 -6 0 0 0 -8 -2 0
0 -7 -12 -4 0 -1 0 -1 0 0 0 -6 -25 -16 0 0 -2 0 0 0 0 0 -2 -15 -18 0 0 0 0 -2 -1 -1 -2 -52 -69 0 -1 -1 0 -2 -28 0 -1
-1 -6 -15 -15 0 0 -2 -1 0 0 -8 -12 -15 -12 0 -1 0 0 -1 -4 -2 0 0 -6 -33 0 0 0 0 0 -1 -2 -52 -47 -115 -24 -15 -1 0 -5 -28 0 -12
-4 -3 -9 -4 -14 -11 -5 -4 -2 -4 -13 -7 -12 -6 0 -4 0 0 0 0 -12 -11 0 0 0 -4 -2 -5 -11 -8 -13 -2 -6 -113 -79 -31 -42 -40 -18 -1 -28 -18 -1
-15 -10 -1 -7 -15 -5 -2 -6 -4 -3 -13 -13 -4 -5 -1 0 0 0 0 0 0 -11 -7 0 -2 -4 -8 -16 -15 -19 -6 -11 -2 -88 -108 -17 -7 -4 -4 -45 -59 -49 -43
-1 -23 -8 0 -1 -6 -4 -5 0 -17 -27 -22 -12 -5 -2 -5 0 0 -1 0 0 0 -14 0 0 -4 -21 -27 -38 -27 -11 -24 -14 -45 -67 -30 -21 -11 -1 0 0 -1 0
-7 -4 -21 -14 -20 -14 -6 -8 -23 -21 0 -15 -15 -4 -3 -1 0 -3 -8 -4 0 0 -1 0 -8 -10 -22 -50 -54 -35 -23 -22 -17 -13 -18 -21 -36 -31 -24 -72 -88 -59 -1
-6 -13 -21 -27 -42 -46 -35 -13 -23 -57 -15 -4 -8 -11 -19 -23 -4 0 -20 -13 -1 0 0 0 -3 -29 -31 -51 -55 -43 -48 -14 -7 -8 -5 -48 -70 -8 -8 -29 -76 -170 -104
-6 -7 -28 -13 -20 -36 -21 -18 -35 -28 -16 -1 -12 -8 -6 -6 0 -2 -14 -7 0 0 0 0 0 -25 -58 -34 -30 -56 -24 -26 -18 -12 -9 -64 -67 -54 -3 -6 -33 -27 -19
-18 -14 0 -4 -4 -5 -4 -8 0 -1 -2 -2 -14 -7 -2 -3 -1 -1 -7 -18 -1 0 -1 -1 -3 -4 -39 -63 -45 -31 -33 -27 -25 -22 -24 -87 -89 -64 -33 -10 -39 -64 -45
-25 -8 0 0 -4 -15 -35 -26 -28 -10 -13 -32 -45 -24 -20 -12 -12 -8 -2 -2 -3 0 0 0 0 0 -14 -66 -61 -43 -40 -23 -9 -23 -30 -83 -88 -80 -70 -30 -47 -65 -67
-47 -17 -3 0 -3 -6 -9 -5 -8 -5 -5 -20 -2 -28 -29 -33 -40 -6 -20 -24 -22 -5 0 0 0 0 -9 -36 -58 -65 -36 -23 -22 -22 -26 -73 -83 -78 -83 -70 -39 -44 -48
-101 -58 -34 -24 -24 -25 -29 -19 -28 -29 -12 -3 -9 -17 -27 -15 -32 -9 -16 -43 -3 -8 -10 0 -1 -1 -5 -16 -27 -44 -35 -27 -26 -20 -18 -21 -70 -78 -76 -91 -70 -58 -36
-137 -112 -83 -79 -54 -71 -68 -40 -21 -29 -27 -18 -21 -20 -28 -48 -49 -38 -36 -34 -23 -16 -19 -8 -20 -21 -6 -4 -13 -25 -21 -22 -17 -28 -28 -21 -28 -82 -79 -70 -118 -98 -73
-147 -155 -116 -96 -86 -72 -57 -37 -50 -46 -43 -41 -34 -32 -39 -45 -64 -70 -70 -56 -41 -25 -23 -19 -20 -14 -15 -8 -11 -15 -23 -23 -25 -29 -35 -34 -31 -27 -44 -72 -69 -81 -87
-186 -166 -155 -133 -113 -100 -79 -61 -48 -50 -62 -75 -67 -55 -45 -43 -48 -42 -39 -50 -51 -31 -31 -28 -12 -22 -24 -18 -16 -18 -22 -22 -27 -19 -30 -35 -30 -33 -32 -39 -59 -63 -63
-190 -214 -172 -145 -133 -134 -110 -100 -88 -79 -70 -68 -81 -82 -77 -72 -69 -51 -38 -37 -29 -33 -31 -34 -35 -27 -33 -25 -29 -22 -24 -24 -22 -20 -24 -17 -32 -56 -46 -27 -29 -32 -62
-212 -230 -221 -196 -164 -148 -141 -135 -112 -97 -75 -72 -62 -63 -68 -70 -64 -53 -38 -41 -44 -44 -28 -26 -20 -25 -18 -28 -42 -40 -36 -27 -32 -27 -20 -25 -36 -55 -51 -27 -34 -25 -29
-173 -185 -187 -217 -199 -197 -169 -150 -125 -89 -78 -72 -59 -68 -59 -50 -49 -39 -44 -38 -39 -32 -42 -38 -40 -25 -27 -27 -25 -8 -53 -35 -24 -27 -37 -54 -65 -64 -74 -68 -61 -50 -43
-164 -166 -139 -152 -172 -178 -194 -152 -139 -120 -101 -95 -68 -54 -54 -53 -49 -40 -35 -30 -24 -43 -32 -44 -38 -39 -23 -14 -45 -12 -1 -28 -18 -35 -43 -55 -67 -56 -46 -51 -61 -57 -53
-145 -168 -166 -149 -154 -153 -153 -131 -115 -74 -72 -94 -90 -66 -50 -63 -52 -42 -32 -25 -30 -15 -23 -24 -33 -39 -27 -7 -5 -34 -30 -6 -1 -26 -11 -29 -26 -32 -31 -31 -35 -39 -41
-170 -169 -205 -207 -188 -167 -145 -119 -90 -82 -84 -70 -54 -67 -72 -57 -95 -72 -40 -27 -25 -28 -26 -27 -22 -18 -15 -19 -18 -6 -3 -23 -11 0 -29 -27 -8 -26 -29 -25 -26 -35 -40
-204 -223 -218 -235 -197 -185 -156 -122 -102 -77 -63 -50 -43 -32 -18 -17 -14 -33 -41 -35 -18 -20 -26 -29 -26 -30 -39 -31 -38 -7 -18 -2 -1 0 0 -4 -24 -47 -22 -30 -40 -35 -27
Wind_Speed
6 16 20 22 20 21 21 23 17 19 17 18 18 12 11 10 8 6 5 9 9 11 14 13 8 2 29 15 3 29 31 31 31 30 29 28 27 27 26 25 25 27 27
20 19 19 22 18 22 17 23 14 14 12 16 14 10 9 9 7 4 3 4 7 10 11 11 11 10 0 1 6 25 30 30 28 29 29 28 26 26 27 26 23 26 26
25 25 22 21 25 26 23 14 13 12 12 11 11 9 7 5 5 3 4 2 1 7 7 7 1 8 7 11 5 10 24 29 28 25 25 25 26 25 26 26 25 23 24
27 21 22 24 25 26 17 15 12 12 11 9 8 7 7 4 3 3 4 0 2 2 7 4 3 10 7 5 1 9 21 25 27 26 24 24 26 24 25 25 24 24 24
24 22 25 26 22 23 18 12 14 11 9 8 8 7 8 5 6 2 5 2 3 2 4 4 2 2 9 7 9 14 18 24 23 22 23 24 23 25 24 23 24 23 21
22 27 19 20 21 19 10 10 11 10 8 7 6 5 4 3 6 3 6 4 4 4 4 5 5 4 7 11 10 15 12 15 18 18 21 23 22 24 23 23 21 21 22
18 18 16 18 21 16 7 9 10 8 7 6 5 3 2 1 3 5 5 4 5 5 5 5 4 6 13 15 14 13 13 14 15 16 17 18 20 22 21 21 21 20 20
24 10 20 12 15 20 20 14 10 7 7 7 4 3 3 4 5 6 6 6 7 6 6 7 7 8 9 13 12 11 11 14 18 17 17 17 17 19 20 19 20 20 19
25 18 18 13 12 17 12 12 10 5 4 8 8 7 7 8 8 8 8 8 8 8 8 9 11 11 10 13 13 11 10 13 17 15 15 15 17 16 18 18 18 18 19
28 20 13 13 7 18 8 15 8 4 2 5 8 11 10 9 10 10 10 10 10 10 10 11 14 15 15 14 14 13 12 14 18 17 15 14 16 17 16 17 17 17 17
29 27 12 24 2 26 19 18 22 16 3 7 5 11 13 12 13 12 12 12 12 12 13 13 15 16 17 17 17 15 14 13 15 15 15 15 15 16 17 17 16 17 17
29 30 15 28 30 6 28 21 12 22 6 5 7 14 15 14 14 14 15 15 15 15 16 16 16 18 20 19 18 18 17 16 15 15 15 14 15 15 17 16 17 17 17
32 32 31 30 29 30 24 21 20 3 10 6 10 14 15 15 16 17 17 17 17 18 18 18 18 19 20 20 21 20 20 19 16 14 14 12 15 15 15 16 15 15 16
31 31 31 29 28 28 20 20 23 24 15 13 13 14 16 16 17 17 18 18 19 19 19 19 19 20 20 21 23 23 22 22 20 20 18 10 13 13 13 15 15 14 14
29 29 30 28 27 26 26 24 24 23 22 22 20 19 18 18 20 19 19 20 20 20 20 21 21 21 21 21 23 24 25 24 23 22 22 16 10 11 12 12 14 14 14
28 28 28 28 26 25 24 24 23 22 21 21 20 19 18 17 16 20 22 22 22 21 21 22 22 22 23 22 22 22 25 26 26 25 24 22 11 7 13 16 14 12 13
26 26 27 27 26 25 23 22 22 22 21 20 19 18 19 19 18 15 16 24 21 21 22 21 22 23 25 25 25 25 27 28 27 28 27 26 24 4 8 10 16 18 15
25 25 25 25 25 24 22 22 21 21 21 20 19 18 17 18 18 17 17 17 22 22 19 16 20 24 26 27 27 27 27 28 29 29 28 28 28 28 19 13 14 16 21
22 23 23 23 23 23 22 21 20 19 19 18 18 18 18 18 17 17 16 15 17 21 11 6 1 20 24 29 29 28 28 29 30 29 28 31 31 32 30 25 6 15 15
19 19 20 21 21 21 21 20 19 18 18 17 17 17 17 16 15 14 16 15 13 13 14 13 7 1 21 27 30 31 31 30 27 29 30 32 33 33 29 28 24 20 11
19 18 18 18 18 17 18 17 16 14 14 14 12 12 13 13 13 13 12 11 9 9 10 7 1 1 15 22 30 32 32 32 31 31 33 33 33 31 27 23 24 25 26
19 19 18 18 16 14 12 11 9 6 8 8 3 5 8 5 6 8 9 6 2 2 2 2 2 2 2 10 24 29 32 32 31 29 29 25 25 26 26 21 17 19 22
19 18 18 17 15 14 12 8 3 3 3 2 8 2 4 2 3 5 5 5 8 8 8 8 8 7 7 11 9 21 28 29 29 27 25 23 23 24 24 22 18 18 20
18 18 17 17 15 11 8 7 7 5 3 1 6 10 7 7 10 6 7 8 9 12 12 11 12 12 13 15 16 13 14 31 34 39 30 27 27 31 29 28 27 27 24
16 17 16 14 12 9 6 4 2 2 2 4 7 8 20 18 11 9 9 8 8 9 12 14 12 15 16 19 18 19 22 25 28 33 42 36 32 31 33 31 33 30 28
15 14 12 11 9 7 6 6 4 3 5 11 14 17 16 18 17 15 12 12 12 16 16 16 18 22 22 23 25 23 23 27 28 29 35 39 39 37 38 35 35 31 27
Wind_Direction
256 70 75 76 80 85 88 91 94 91 92 88 88 104 120 136 133 139 152 171 172 169 164 166 170 139 118 43 168 79 92 100 104 110 113 117 119 119 118 122 124 118 120
83 81 79 84 81 92 95 96 104 106 108 95 89 109 129 152 152 102 130 164 175 177 175 173 172 174 157 208 176 127 89 99 120 110 109 115 122 123 120 120 130 121 122
101 102 86 86 92 97 97 108 108 121 122 111 92 100 105 137 159 75 54 164 162 188 189 183 298 184 189 175 183 173 134 109 113 124 125 122 119 127 124 123 124 129 128
106 93 90 92 96 97 100 102 124 124 113 110 104 100 87 106 106 58 38 25 4 226 197 217 234 187 194 198 249 178 144 127 116 115 125 123 119 126 126 125 127 127 130
93 97 100 98 95 98 96 111 105 116 125 124 93 85 75 77 54 45 26 344 350 271 240 236 344 259 197 201 186 167 149 126 134 133 124 123 127 121 125 131 127 131 137
83 107 94 95 93 97 110 114 117 115 119 128 96 90 81 61 32 4 8 337 320 335 272 240 8 236 213 197 200 171 180 167 152 152 137 121 130 116 127 129 141 139 136
83 85 87 92 92 93 158 145 115 134 144 154 106 118 176 284 310 340 335 298 333 316 287 266 299 7 200 189 188 191 193 186 172 163 162 154 134 126 130 136 141 147 148
95 75 87 80 84 96 101 98 110 136 168 186 177 199 254 269 290 295 297 291 314 315 294 269 279 266 246 211 212 215 211 184 155 167 164 165 160 142 128 139 142 144 151
101 89 84 79 83 91 93 96 101 131 176 213 225 245 263 266 269 277 287 307 304 309 296 276 260 256 271 230 226 238 239 198 173 180 176 176 168 169 144 138 150 148 144
115 92 77 81 82 88 88 88 96 105 80 237 243 244 257 269 280 285 297 299 303 300 293 273 257 243 248 246 233 252 252 186 149 158 170 196 170 169 170 155 152 154 161
115 106 87 173 135 108 93 94 110 99 281 272 307 257 241 270 272 277 288 278 279 281 278 275 266 260 249 248 248 254 241 254 190 181 189 151 155 182 185 178 166 160 158
120 124 90 160 129 92 155 143 83 105 72 11 303 248 248 268 270 273 275 268 266 269 264 266 271 267 251 254 255 245 240 224 194 213 210 180 164 151 183 172 179 176 182
127 140 138 141 132 141 164 178 183 320 65 352 286 259 263 267 272 271 274 271 272 267 267 267 266 265 264 263 260 256 259 236 219 190 199 158 170 166 165 176 168 167 180
134 140 141 141 139 146 206 203 179 160 222 252 257 269 269 285 289 284 275 272 273 272 271 275 270 270 272 273 264 257 263 254 252 260 236 150 159 150 155 174 173 168 168
139 145 149 150 149 151 173 157 168 177 176 180 170 180 182 197 202 292 293 287 277 286 279 275 275 272 276 282 272 266 263 271 260 269 272 278 136 156 161 164 174 173 176
142 144 150 153 156 157 164 170 178 172 165 174 181 182 183 176 186 248 240 293 295 295 293 286 281 277 270 281 286 286 273 271 270 270 281 300 3 125 179 189 185 171 178
148 147 153 156 160 163 167 167 169 172 172 176 183 186 192 196 198 191 206 285 311 308 299 302 289 283 265 276 280 283 274 271 277 275 282 282 297 121 167 176 195 202 196
156 156 158 164 170 173 174 176 179 180 185 190 195 195 192 194 198 202 206 210 268 308 322 331 312 295 283 274 277 282 282 281 279 280 284 280 283 280 306 199 200 203 215
150 156 161 163 171 177 183 183 187 190 191 193 193 195 196 198 196 201 204 204 210 235 265 200 330 318 304 280 276 284 287 287 286 289 293 283 279 277 286 298 224 207 210
146 149 157 163 168 172 181 186 189 190 193 193 194 195 196 193 192 192 204 204 196 198 199 199 194 197 314 298 288 280 281 287 297 293 293 285 281 278 291 294 303 301 219
154 152 154 157 160 158 167 176 180 179 181 184 175 181 188 188 195 197 199 195 185 188 198 193 177 202 317 311 291 287 288 287 291 291 286 286 284 286 296 304 302 302 301
157 160 160 162 160 162 159 156 150 128 164 173 110 165 180 182 190 199 203 203 213 304 284 237 278 257 317 338 306 297 294 290 293 294 296 300 301 300 300 307 309 308 306
160 160 163 166 166 164 164 157 112 24 6 24 189 182 343 291 251 300 291 283 314 318 317 315 316 307 308 326 321 307 300 298 299 303 304 305 306 306 307 312 315 312 309
157 161 165 162 159 154 142 152 172 186 196 222 333 333 331 327 328 294 276 271 299 311 310 307 309 303 305 307 313 304 294 295 295 289 298 300 298 293 297 300 306 305 306
142 149 151 147 147 133 125 139 108 179 211 332 340 336 323 323 325 315 308 278 278 297 306 307 302 301 302 301 299 302 305 304 300 294 284 291 295 297 294 298 293 300 301
130 130 120 118 122 99 87 78 87 66 14 353 345 339 336 330 326 322 313 306 305 309 307 306 307 309 305 302 299 295 297 302 304 302 293 289 289 292 289 294 291 298 303